GW0701 Weather Reports


Display with metric or nautical units.
time (UTC)temp
F
wind
direction
speed
MPH
gust
MPH
rain 1hr
in
rain 24hr
in
rain mn
in
humidity
%
barometer
mb
20260510054326 56 240 0.0 1.0 0.00 0.00 0.00 54 1014.4
20260510053822 56 221 0.0 1.0 0.00 0.00 0.00 54 1014.3
20260510053317 56 337 3.0 3.0 0.00 0.00 0.00 53 1014.3
20260510052814 57 252 0.0 0.0 0.00 0.00 0.00 54 1014.1
20260510052310 57 249 0.0 0.0 0.00 0.00 0.00 53 1013.9
20260510051806 57 234 0.0 0.0 0.00 0.00 0.00 54 1013.7
20260510051303 58 248 0.0 1.0 0.00 0.00 0.00 52 1013.6
20260510050800 58 252 0.0 1.0 0.00 0.00 0.00 50 1013.5
20260510050256 59 275 0.0 0.0 0.00 0.00 0.00 51 1013.4
20260510045754 59 356 2.0 2.0 0.00 0.01 0.01 48 1013.2
20260510045250 60 340 2.0 2.0 0.00 0.01 0.01 49 1013.2
20260510044747 60 270 0.0 1.0 0.00 0.01 0.01 52 1013.1
20260510044245 61 36 2.0 2.0 0.00 0.01 0.01 48 1012.9
20260510043740 61 13 1.0 2.0 0.00 0.01 0.01 48 1012.8
20260510043237 61 346 4.0 7.0 0.00 0.01 0.01 49 1013.0
20260510042734 61 29 1.0 2.0 0.00 0.01 0.01 50 1012.9
20260510042229 62 274 1.0 1.0 0.00 0.01 0.01 51 1013.2
20260510041727 62 56 2.0 3.0 0.00 0.01 0.01 51 1012.7
20260510041224 62 359 2.0 2.0 0.00 0.01 0.01 50 1013.0
20260510040721 63 263 0.0 0.0 0.00 0.01 0.01 48 1013.0
20260510040218 63 309 1.0 1.0 0.00 0.01 0.01 47 1012.8
20260510035713 63 343 5.0 7.0 0.00 0.01 0.01 45 1012.8
20260510035209 63 147 2.0 2.0 0.00 0.01 0.01 47 1012.7
20260510034705 64 52 1.0 1.0 0.00 0.01 0.01 48 1012.6
20260510034203 63 343 4.0 5.0 0.00 0.01 0.01 49 1012.5
20260510033659 63 88 3.0 3.0 0.00 0.01 0.01 50 1012.4
20260510033157 63 42 5.0 8.0 0.00 0.01 0.01 52 1012.4
20260510032653 63 334 5.0 6.0 0.00 0.01 0.01 52 1012.3
20260510032149 63 303 1.0 1.0 0.00 0.01 0.01 54 1012.3
20260510031643 62 253 1.0 1.0 0.00 0.01 0.01 56 1011.8
20260510031141 62 254 1.0 1.0 0.00 0.01 0.01 57 1012.0
20260510030635 62 265 1.0 1.0 0.00 0.01 0.01 54 1011.9
20260510030133 63 232 0.0 0.0 0.00 0.01 0.01 59 1011.6
20260510025630 63 266 0.0 0.0 0.00 0.01 0.01 62 1011.5
20260510025127 63 267 0.0 1.0 0.00 0.01 0.01 53 1011.3
20260510024623 64 335 3.0 3.0 0.00 0.01 0.01 52 1011.0
20260510024120 63 236 0.0 1.0 0.00 0.01 0.01 55 1011.2
20260510023616 64 292 1.0 1.0 0.00 0.01 0.01 51 1011.1
20260510023114 64 213 0.0 1.0 0.00 0.01 0.01 53 1010.9
20260510022613 63 299 1.0 2.0 0.00 0.01 0.01 54 1010.9
20260510022108 64 329 0.0 1.0 0.00 0.01 0.01 55 1010.8
20260510021604 64 6 2.0 2.0 0.00 0.01 0.01 53 1010.7
20260510021102 64 262 0.0 0.0 0.00 0.01 0.01 51 1010.7
20260510020556 65 335 2.0 2.0 0.00 0.01 0.01 53 1010.7
20260510020051 65 321 1.0 2.0 0.00 0.01 0.01 52 1010.5
20260510015548 65 269 0.0 0.0 0.00 0.01 0.01 53 1010.6
20260510015044 66 271 0.0 1.0 0.00 0.01 0.01 53 1010.5
20260510014540 66 332 0.0 2.0 0.00 0.01 0.01 49 1010.4
20260510014038 66 23 3.0 3.0 0.00 0.01 0.01 50 1010.2
20260510013532 66 206 0.0 1.0 0.00 0.01 0.01 50 1010.2
20260510013028 66 358 3.0 3.0 0.00 0.01 0.01 48 1010.0
20260510012522 66 35 2.0 2.0 0.00 0.01 0.01 49 1010.2
20260510012019 66 57 0.0 1.0 0.00 0.01 0.01 49 1010.0
20260510011518 66 207 2.0 2.0 0.00 0.01 0.01 49 1010.0
20260510011014 67 326 3.0 3.0 0.00 0.01 0.01 49 1009.6
20260510010512 67 8 1.0 2.0 0.00 0.01 0.01 48 1009.5
20260510010008 67 328 4.0 6.0 0.00 0.01 0.01 48 1009.2
20260510005504 67 41 3.0 5.0 0.00 0.01 0.01 48 1009.3
20260510005002 67 346 3.0 3.0 0.00 0.01 0.01 50 1008.9
20260510004459 67 268 1.0 1.0 0.00 0.01 0.01 50 1009.1
20260510003957 68 357 4.0 6.0 0.00 0.01 0.01 50 1009.0
20260510003453 68 43 2.0 2.0 0.00 0.01 0.01 49 1008.8
20260510002948 68 3 3.0 6.0 0.00 0.01 0.01 48 1008.7
20260510002445 68 303 1.0 3.0 0.00 0.01 0.01 49 1008.4
20260510001941 69 346 7.0 8.0 0.00 0.01 0.01 46 1008.4
20260510001439 69 358 4.0 6.0 0.00 0.01 0.01 47 1008.1
20260510000937 69 4 6.0 8.0 0.00 0.01 0.01 46 1008.1
20260510000433 70 4 5.0 7.0 0.00 0.01 0.01 46 1008.2
20260509235929 70 74 3.0 5.0 0.00 0.01 0.01 45 1008.1
20260509235426 71 71 1.0 2.0 0.00 0.01 0.01 45 1008.1
20260509234922 71 6 5.0 7.0 0.00 0.01 0.01 43 1007.9
20260509234419 72 315 10.0 11.0 0.00 0.01 0.01 42 1007.9
20260509233917 73 0 8.0 13.0 0.00 0.01 0.01 40 1007.9
20260509233414 73 23 6.0 8.0 0.00 0.01 0.01 39 1007.9
20260509232910 75 66 6.0 9.0 0.00 0.01 0.01 35 1007.5
20260509232408 75 3 2.0 3.0 0.00 0.01 0.01 34 1007.6
20260509231904 76 110 4.0 9.0 0.00 0.01 0.01 31 1007.4
20260509231401 76 111 3.0 5.0 0.00 0.01 0.01 32 1007.1
20260509230859 76 9 3.0 7.0 0.00 0.01 0.01 31 1007.1
20260509230355 77 96 1.0 1.0 0.00 0.01 0.01 33 1007.1
20260509225851 76 124 1.0 1.0 0.00 0.01 0.01 33 1007.1
20260509225348 77 44 4.0 6.0 0.00 0.01 0.01 32 1007.0
20260509224844 77 262 0.0 1.0 0.00 0.01 0.01 36 1006.8
20260509224340 77 27 3.0 5.0 0.00 0.01 0.01 32 1006.8
20260509223837 77 349 3.0 3.0 0.00 0.01 0.01 33 1006.8
20260509223334 78 270 3.0 6.0 0.00 0.01 0.01 32 1006.7
20260509222831 78 216 1.0 1.0 0.00 0.01 0.01 34 1006.7
20260509222326 78 41 3.0 6.0 0.00 0.01 0.01 29 1006.7
20260509221821 78 0 3.0 3.0 0.00 0.01 0.01 31 1006.6
20260509221320 79 338 5.0 6.0 0.00 0.01 0.01 30 1006.6
20260509220820 79 252 2.0 2.0 0.00 0.01 0.01 30 1006.6
20260509220316 79 285 1.0 1.0 0.00 0.01 0.01 29 1006.4
20260509215812 79 296 4.0 6.0 0.00 0.01 0.01 30 1006.6
20260509215309 80 255 3.0 3.0 0.00 0.01 0.01 31 1006.4
20260509214805 81 288 2.0 2.0 0.00 0.01 0.01 30 1006.4
20260509214303 81 238 3.0 5.0 0.00 0.01 0.01 29 1006.4
20260509213759 82 264 2.0 3.0 0.00 0.01 0.01 32 1006.4
20260509213255 80 354 1.0 2.0 0.00 0.01 0.01 30 1006.3
20260509212753 80 259 8.0 10.0 0.00 0.01 0.01 28 1006.3
20260509212250 81 242 1.0 2.0 0.00 0.01 0.01 28 1006.6
20260509211745 80 248 5.0 7.0 0.00 0.01 0.01 29 1006.6
20260509211242 81 242 1.0 2.0 0.00 0.01 0.01 32 1006.6
20260509210738 81 274 3.0 3.0 0.00 0.01 0.01 28 1006.4
20260509210236 82 226 4.0 6.0 0.00 0.01 0.01 28 1006.7
20260509205735 81 271 3.0 5.0 0.00 0.01 0.01 29 1006.6
20260509205230 81 341 2.0 6.0 0.00 0.01 0.01 29 1006.6
20260509204726 81 251 3.0 5.0 0.00 0.01 0.01 27 1006.6
20260509204223 81 278 2.0 2.0 0.00 0.01 0.01 29 1006.7
20260509203719 80 240 4.0 5.0 0.00 0.01 0.01 29 1006.7
20260509203217 80 287 4.0 5.0 0.00 0.01 0.01 31 1006.8
20260509202712 80 277 3.0 5.0 0.00 0.01 0.01 31 1006.9
20260509202208 79 257 3.0 5.0 0.00 0.01 0.01 30 1006.9
20260509201703 80 279 3.0 3.0 0.00 0.01 0.01 30 1007.0
20260509201200 81 220 5.0 6.0 0.00 0.01 0.01 30 1007.1
20260509200657 80 244 2.0 2.0 0.00 0.01 0.01 30 1007.0
20260509200152 80 248 7.0 8.0 0.00 0.01 0.01 28 1006.9
20260509195648 80 236 2.0 2.0 0.00 0.01 0.01 29 1007.0
20260509195143 80 339 3.0 5.0 0.00 0.01 0.01 33 1007.2
20260509194637 80 254 7.0 9.0 0.00 0.01 0.01 29 1007.2
20260509194134 80 296 2.0 2.0 0.00 0.01 0.01 34 1007.0
20260509193630 79 246 1.0 2.0 0.00 0.01 0.01 32 1007.1
20260509193126 79 252 5.0 6.0 0.00 0.01 0.01 32 1007.2
20260509192623 80 220 4.0 5.0 0.00 0.01 0.01 29 1007.0
20260509192118 79 248 2.0 2.0 0.00 0.01 0.01 30 1007.2
20260509191612 79 260 5.0 7.0 0.00 0.01 0.01 30 1007.3
20260509191109 79 249 6.0 8.0 0.00 0.01 0.01 31 1007.3
20260509190606 79 242 5.0 6.0 0.00 0.01 0.01 29 1007.3
20260509185601 79 228 7.0 9.0 0.00 0.01 0.01 29 1007.1
20260509185056 80 279 6.0 9.0 0.00 0.01 0.01 31 1007.2
20260509184555 78 251 6.0 7.0 0.00 0.01 0.01 29 1007.2
20260509184051 78 239 2.0 2.0 0.00 0.01 0.01 31 1007.1
20260509183547 78 298 5.0 7.0 0.00 0.01 0.01 30 1007.4
20260509183043 78 267 5.0 8.0 0.00 0.01 0.01 34 1007.3
20260509182539 78 249 6.0 8.0 0.00 0.01 0.01 30 1007.4
20260509182036 78 268 3.0 3.0 0.00 0.01 0.01 35 1007.3
20260509181535 77 255 2.0 2.0 0.00 0.01 0.01 34 1007.2
20260509181031 77 201 1.0 2.0 0.00 0.01 0.01 39 1007.2
20260509180526 78 234 2.0 3.0 0.00 0.01 0.01 33 1007.4
20260509180025 77 264 5.0 7.0 0.00 0.01 0.01 34 1007.2
20260509175520 77 304 5.0 6.0 0.00 0.01 0.01 38 1007.5
20260509175017 77 236 3.0 3.0 0.00 0.01 0.01 37 1007.3
20260509174513 77 198 2.0 3.0 0.00 0.01 0.01 40 1007.1
20260509174008 77 255 9.0 10.0 0.00 0.01 0.01 35 1007.4
20260509173503 76 244 3.0 3.0 0.00 0.01 0.01 37 1007.3
20260509173000 75 241 1.0 1.0 0.00 0.01 0.01 46 1007.4
20260509172457 75 272 3.0 5.0 0.00 0.01 0.01 44 1007.3
20260509171952 75 259 3.0 5.0 0.00 0.01 0.01 41 1007.3
20260509171449 75 273 4.0 7.0 0.00 0.01 0.01 42 1007.2
20260509170945 75 300 4.0 6.0 0.00 0.01 0.01 43 1007.3
20260509170440 75 259 5.0 6.0 0.00 0.01 0.01 44 1007.1
20260509165936 75 261 4.0 6.0 0.00 0.01 0.01 43 1007.0
20260509165430 73 279 3.0 3.0 0.00 0.01 0.01 46 1007.0
20260509164926 73 314 5.0 7.0 0.00 0.01 0.01 44 1007.0
20260509164422 73 262 3.0 3.0 0.00 0.01 0.01 51 1006.9
20260509163918 72 276 1.0 1.0 0.00 0.01 0.01 55 1007.0
20260509163416 73 268 3.0 3.0 0.00 0.01 0.01 52 1007.0
20260509162915 73 252 2.0 2.0 0.00 0.01 0.01 54 1007.0
20260509162414 73 261 2.0 3.0 0.00 0.01 0.01 54 1007.0
20260509161909 72 270 3.0 5.0 0.00 0.01 0.01 53 1007.3
20260509161406 71 219 1.0 1.0 0.00 0.01 0.01 55 1007.1
20260509160902 71 280 2.0 2.0 0.00 0.01 0.01 55 1007.2
20260509160357 71 260 2.0 2.0 0.00 0.01 0.01 58 1007.0
20260509155853 70 255 2.0 3.0 0.00 0.01 0.01 62 1007.0
20260509155349 70 226 1.0 1.0 0.00 0.01 0.01 59 1007.1
20260509154846 69 269 2.0 2.0 0.00 0.01 0.01 61 1007.1
20260509154343 69 254 4.0 5.0 0.00 0.01 0.01 61 1006.7
20260509153839 69 274 3.0 5.0 0.00 0.01 0.01 63 1006.7
20260509153337 68 240 3.0 3.0 0.00 0.01 0.01 65 1006.7
20260509152833 67 219 1.0 1.0 0.00 0.01 0.01 67 1006.7
20260509152329 67 261 3.0 3.0 0.00 0.01 0.01 67 1007.0
20260509151827 66 261 2.0 2.0 0.00 0.01 0.01 68 1006.8
20260509151322 66 235 3.0 3.0 0.00 0.01 0.01 67 1006.7
20260509150821 66 243 2.0 2.0 0.00 0.01 0.01 69 1006.7
20260509150318 65 246 4.0 6.0 0.00 0.01 0.01 72 1006.8
20260509145815 67 269 6.0 7.0 0.00 0.01 0.01 70 1006.8
20260509145315 66 295 1.0 2.0 0.00 0.01 0.01 73 1007.0
20260509144812 64 223 3.0 3.0 0.00 0.01 0.01 75 1006.7
20260509144309 64 282 4.0 5.0 0.00 0.01 0.01 75 1006.7
20260509143806 64 239 3.0 3.0 0.00 0.01 0.01 76 1006.9
20260509143304 64 203 2.0 2.0 0.00 0.01 0.01 76 1006.6
20260509142800 64 235 2.0 2.0 0.00 0.01 0.01 77 1006.7
20260509142256 63 245 1.0 1.0 0.00 0.01 0.01 80 1006.9
20260509141751 62 309 4.0 5.0 0.00 0.01 0.01 80 1006.9
20260509141249 61 259 7.0 10.0 0.00 0.01 0.01 81 1007.0
20260509140745 62 251 3.0 5.0 0.00 0.01 0.01 82 1006.9
20260509140242 61 266 3.0 3.0 0.00 0.01 0.01 83 1006.6
20260509135740 62 250 1.0 2.0 0.00 0.01 0.01 84 1007.1
20260509135238 60 239 4.0 5.0 0.00 0.01 0.01 86 1007.0
20260509134734 60 265 2.0 2.0 0.00 0.01 0.01 87 1007.0
20260509134232 60 290 6.0 8.0 0.00 0.01 0.01 86 1006.8
20260509133729 60 258 2.0 3.0 0.00 0.01 0.01 88 1006.8
20260509133225 59 241 4.0 5.0 0.00 0.01 0.01 88 1006.9
20260509132724 59 272 4.0 7.0 0.00 0.01 0.01 88 1006.7
20260509132222 59 231 2.0 2.0 0.00 0.01 0.01 89 1006.8
20260509131718 59 245 2.0 2.0 0.00 0.01 0.01 90 1006.7
20260509131215 58 263 3.0 3.0 0.00 0.01 0.01 91 1006.7
20260509130711 58 240 3.0 5.0 0.00 0.01 0.01 91 1006.3
20260509130207 58 289 3.0 5.0 0.00 0.01 0.01 92 1006.2
20260509125704 57 245 2.0 2.0 0.00 0.01 0.01 93 1006.2
20260509125201 57 282 3.0 3.0 0.00 0.01 0.01 94 1006.3
20260509124657 57 248 4.0 7.0 0.00 0.01 0.01 95 1006.2
20260509124154 56 250 4.0 5.0 0.07 0.01 0.01 96 1006.3
20260509123652 55 302 6.0 8.0 0.07 0.01 0.01 96 1006.0
20260509123149 55 268 2.0 2.0 0.00 0.00 0.00 97 1006.0
20260509122644 55 228 4.0 6.0 0.00 0.00 0.00 97 1006.1
20260509122142 55 265 3.0 3.0 0.00 0.00 0.00 97 1006.2
20260509121638 54 261 4.0 7.0 0.00 0.00 0.00 98 1006.1
20260509121136 54 268 4.0 5.0 0.00 0.00 0.00 98 1006.2
20260509120634 54 239 2.0 2.0 0.00 0.00 0.00 98 1005.8
20260509120132 54 225 1.0 2.0 0.00 0.00 0.00 98 1006.0
20260509115629 53 226 1.0 2.0 0.00 0.00 0.00 98 1005.8
20260509115127 53 256 2.0 2.0 0.00 0.00 0.00 98 1005.9
20260509114625 53 236 1.0 1.0 0.00 0.00 0.00 98 1005.9
20260509114123 53 231 1.0 1.0 0.00 0.00 0.00 98 1005.9
20260509113621 53 233 0.0 1.0 0.00 0.00 0.00 99 1005.9
20260509113118 52 255 1.0 2.0 0.00 0.00 0.00 99 1005.8
20260509112614 52 230 1.0 1.0 0.00 0.00 0.00 99 1005.8
20260509112112 52 232 1.0 1.0 0.00 0.00 0.00 99 1005.7
20260509111609 52 232 0.0 1.0 0.00 0.00 0.00 99 1005.5
20260509111106 52 229 1.0 1.0 0.00 0.00 0.00 99 1005.4
20260509110603 52 235 1.0 1.0 0.00 0.00 0.00 99 1005.4
20260509110100 52 234 1.0 1.0 0.00 0.00 0.00 99 1005.6
20260509105558 52 244 1.0 2.0 0.00 0.00 0.00 99 1005.5
20260509105055 52 248 2.0 2.0 0.00 0.00 0.00 99 1005.7
20260509104552 52 250 2.0 2.0 0.00 0.00 0.00 99 1005.6
20260509104049 52 228 2.0 3.0 0.00 0.00 0.00 99 1005.6
20260509103547 52 241 4.0 6.0 0.00 0.00 0.00 99 1005.6
20260509103045 52 260 2.0 3.0 0.00 0.00 0.00 99 1005.5
20260509102542 52 237 2.0 2.0 0.00 0.00 0.00 99 1005.5
20260509102039 52 230 4.0 7.0 0.00 0.00 0.00 99 1005.4
20260509101535 52 248 2.0 2.0 0.00 0.00 0.00 99 1005.6
20260509101032 52 241 1.0 2.0 0.00 0.00 0.00 99 1005.6
20260509100529 52 260 3.0 3.0 0.00 0.00 0.00 99 1005.5
20260509100026 52 234 3.0 3.0 0.00 0.00 0.00 99 1005.7
20260509095523 52 243 1.0 2.0 0.00 0.00 0.00 99 1005.7
20260509095020 52 241 1.0 1.0 0.00 0.00 0.00 98 1005.4
20260509094516 52 227 1.0 1.0 0.00 0.00 0.00 98 1005.5
20260509094014 52 245 2.0 2.0 0.00 0.00 0.00 98 1005.5
20260509093512 52 245 3.0 3.0 0.00 0.00 0.00 98 1005.6
20260509093009 52 255 3.0 3.0 0.00 0.00 0.00 98 1005.7
20260509092507 52 260 3.0 3.0 0.00 0.00 0.00 98 1005.5
20260509092006 52 232 1.0 1.0 0.00 0.00 0.00 98 1005.7
20260509091502 51 247 1.0 1.0 0.00 0.00 0.00 98 1005.4
20260509090959 51 248 1.0 1.0 0.00 0.00 0.00 98 1005.5
20260509090456 51 239 3.0 3.0 0.00 0.00 0.00 98 1005.6
20260509085954 51 241 2.0 2.0 0.00 0.00 0.00 98 1005.5
20260509085451 51 241 1.0 1.0 0.00 0.00 0.00 98 1005.4
20260509084947 51 247 2.0 2.0 0.00 0.00 0.00 98 1005.7
20260509084444 51 262 2.0 2.0 0.00 0.00 0.00 98 1005.5
20260509083941 51 240 1.0 1.0 0.00 0.00 0.00 98 1005.4
20260509083438 51 230 1.0 1.0 0.00 0.00 0.00 98 1005.4
20260509082935 51 252 3.0 5.0 0.00 0.00 0.00 98 1005.7
20260509082432 51 261 3.0 3.0 0.00 0.00 0.00 98 1005.6
20260509081929 51 240 1.0 2.0 0.00 0.00 0.00 98 1005.4
20260509081426 51 247 1.0 2.0 0.00 0.00 0.00 98 1005.4
20260509080924 51 248 3.0 3.0 0.00 0.00 0.00 98 1005.4
20260509080421 51 252 3.0 5.0 0.00 0.00 0.00 98 1005.6
20260509075920 51 238 1.0 2.0 0.00 0.00 0.00 98 1005.3
20260509075416 52 236 1.0 1.0 0.00 0.00 0.00 98 1005.5
20260509074914 51 231 2.0 3.0 0.00 0.00 0.00 98 1005.7
20260509074411 52 259 2.0 2.0 0.00 0.00 0.00 98 1005.4
20260509073907 52 241 1.0 1.0 0.00 0.00 0.00 98 1005.5
20260509073404 52 242 2.0 2.0 0.00 0.00 0.00 98 1005.4
20260509072900 52 246 2.0 2.0 0.00 0.00 0.00 98 1005.4
20260509072357 52 252 3.0 3.0 0.00 0.00 0.00 98 1005.7
20260509071854 52 259 3.0 3.0 0.00 0.00 0.00 98 1005.8
20260509071351 52 224 1.0 1.0 0.00 0.00 0.00 98 1005.6
20260509070848 52 255 1.0 1.0 0.00 0.00 0.00 98 1005.6
20260509070345 52 224 2.0 3.0 0.00 0.00 0.00 98 1005.6
20260509065841 52 230 1.0 2.0 0.00 0.00 0.00 98 1005.7
20260509065337 52 221 2.0 2.0 0.00 0.00 0.00 97 1005.7
20260509064833 52 240 3.0 3.0 0.00 0.00 0.00 97 1005.8
20260509064331 52 221 3.0 3.0 0.00 0.00 0.00 97 1005.9
20260509063828 52 219 3.0 3.0 0.00 0.00 0.00 97 1006.0
20260509063324 52 208 2.0 2.0 0.00 0.00 0.00 97 1006.0
20260509062822 52 211 1.0 2.0 0.00 0.00 0.00 97 1006.1
20260509062318 52 225 2.0 2.0 0.00 0.00 0.00 97 1006.1
20260509061816 52 219 2.0 2.0 0.00 0.00 0.00 97 1006.0
20260509061314 52 223 2.0 2.0 0.00 0.00 0.00 97 1006.1
20260509060810 53 225 2.0 2.0 0.00 0.00 0.00 97 1006.2
20260509060307 53 227 1.0 2.0 0.00 0.00 0.00 97 1006.1
20260509055803 53 210 2.0 3.0 0.00 0.00 0.00 97 1006.6
20260509055258 53 207 3.0 3.0 0.00 0.00 0.00 97 1006.6
20260509054755 53 226 2.0 2.0 0.00 0.00 0.00 97 1006.6